Tracking 30308 objects as of 19-Apr-2025
HD Live streaming from Space Station
objects crossing your sky now

STARLINK-4739

Track STARLINK-4739 now!
10-day predictions
STARLINK-4739 is classified as:


NORAD ID: 53792
Int'l Code: 2022-111V
Perigee: 546.0 km
Apogee: 547.8 km
Inclination: 53.2 °
Period: 95.4 minutes
Semi major axis: 6917 km
RCS: Unknown
Launch date: September 11, 2022
Source: United States (US)
Launch site: AIR FORCE EASTERN TEST RANGE (AFETR)
Your satellite tracking list
Your tracking list is empty




NASA's NSSDC Master Catalog

Two Line Element Set (TLE):
1 53792U 22111V   25108.79939793  .00000105  00000-0  24709-4 0  9997
2 53792  53.2178 292.9553 0001343  92.8227 267.2919 15.08837317143838
Source of the keplerian elements: AFSPC